[[{"header":{"parameterUnit":"m.s-1","parameterCategory":1,"la1":30.2991,"la2":30.254,"lo1":-89.0895,"lo2":-89.0444,"dy":0.0017,"dx":0.0017,"nx":28,"ny":28,"refTime":"2023-10-07T09:00:00:Z","depth":0,"parameterNumber":2,"parameterNumberName":"U-component_of_WINDS"},"data":[0,0,0,0,0,0,0,0,0,0,0,0,0,0,0,0,0,0,0,0,0,0,0,0,0,0,0,0,0,0,0,0,0,0,0,0,0,0,0,0,0,0,0,0,0,0,0,0,0,0,0,0,0,0,0,0,0,0,-3.2693,-3.2694,0,-3.2785,-3.2786,-3.2787,-3.2646,-3.2641,-3.2636,-3.2631,-3.2727,-3.2734,-3.2741,0,0,0,0,0,0,0,0,0,0,0,0,0,-3.2396,-3.2402,-3.2693,-3.2694,-3.2695,-3.2785,-3.2786,-3.2787,-3.2647,-3.2641,-3.2635,-3.2629,-3.2725,-3.2733,-3.2742,0,0,0,0,0,0,0,0,0,0,0,0,0,-3.251,-3.2404,-3.2693,-3.2636,-3.2631,-3.2784,-3.2786,-3.2787,-3.2648,-3.2641,-3.2633,-3.2626,-3.2722,-3.2733,-3.2743,-3.2956,0,0,-3.2776,-3.278,0,0,0,0,0,0,0,0,-3.2504,-3.2521,-3.2643,-3.264,-3.2635,-3.2696,-3.2716,-3.2844,-3.265,-3.2642,-3.2631,-3.2623,-3.2723,-3.2733,-3.2767,-3.2961,-3.2965,-3.2777,-3.2783,-3.2788,-3.2791,0,0,0,0,0,0,0,-3.2496,-3.2516,-3.2729,-3.2645,-3.264,-3.2606,-3.2614,-3.274,-3.2723,-3.2642,-3.2632,-3.2645,-3.272,-3.2757,-3.2768,-3.2966,-3.2776,-3.2786,-3.2793,-3.2797,-3.334,-3.3348,0,0,0,0,0,0,-3.2495,-3.2511,-3.2726,-3.2732,-3.255,-3.2617,-3.2626,-3.2684,-3.2721,-3.2719,-3.2651,-3.2638,-3.2742,-3.2756,-3.2771,-3.3024,-3.2788,-3.2798,-3.2804,-3.3332,-3.3342,-3.3351,0,0,0,0,0,0,-3.2489,-3.2515,-3.2722,-3.2619,-3.2642,-3.263,-3.2696,-3.269,-3.2727,-3.2728,-3.2724,-3.2692,-3.2737,-3.2756,-3.2911,-3.3025,-3.2803,-3.2812,-3.3323,-3.3335,-3.3346,-3.3532,0,0,0,0,0,0,-3.2481,-3.2514,-3.2595,-3.2621,-3.2648,-3.2862,-3.2703,-3.2697,-3.2746,-3.2729,-3.2765,-3.2764,-3.2732,-3.2896,-3.2922,-3.3036,-3.2821,-3.3313,-3.3328,-3.3342,-3.3515,-3.3549,-3.3577,0,0,0,0,0,-3.2471,-3.2644,-3.26,-3.2627,-3.275,-3.2869,-3.2884,-3.2844,-3.2755,-3.2837,-3.2837,-3.2763,-3.3008,-3.2913,-3.2941,-3.306,-3.3305,-3.3324,-3.3341,-3.3502,-3.3542,-3.3576,0,0,0,0,0,0,-3.2633,-3.2647,-3.2598,-3.2785,-3.2827,-3.2845,-3.2947,-3.2888,-3.2957,-3.2939,-3.2886,-3.2895,-3.3062,-3.3076,-3.297,-3.3268,-3.3142,-3.3166,-3.3254,-3.3292,-3.3323,-3.3317,-3.283,0,0,0,0,0,-3.269,-3.2785,-3.2792,-3.2956,-3.298,-3.296,-3.301,-3.2975,-3.3017,-3.3034,-3.3046,-3.3089,-3.3176,-3.3234,-3.3314,-3.3515,-3.3522,-3.3611,-3.3641,-3.3666,-3.369,-3.3798,-3.3838,-3.341,-3.341,-3.3409,0,0,-3.281,-3.2829,-3.2893,-3.2989,-3.3018,-3.3119,-3.2976,-3.3088,-3.3163,-3.3051,-3.32,-3.3209,-3.3254,-3.3434,-3.3514,-3.3451,-3.3808,-3.369,-3.371,-3.3719,-3.382,-3.3861,-3.3897,-3.3422,-3.342,-3.3418,0,0,-3.308,-3.3103,-3.3243,-3.3274,-3.3318,-3.3303,-3.3337,-3.3364,-3.3366,-3.3514,-3.3432,-3.3519,-3.3669,-3.3705,-3.3743,-3.4024,-3.3959,-3.4051,-3.4213,-3.432,-3.4353,-3.4383,-3.4485,-3.4522,-3.4073,-3.4074,-3.4074,0,-3.3223,-3.3372,-3.3322,-3.3441,-3.3486,-3.3388,-3.353,-3.3562,-3.3631,-3.3664,-3.3592,-3.3778,-3.3801,-3.3988,-3.4057,-3.409,-3.4127,-3.4049,-3.4352,-3.4382,-3.4409,-3.4506,-3.4544,-3.4085,-3.4083,-3.4082,-3.4081,0,-3.3547,-3.3651,-3.3758,-3.3826,-3.3883,-3.4013,-3.3983,-3.4046,-3.4006,-3.3999,-3.415,-3.4174,-3.4257,-3.4297,-3.4259,-3.448,-3.4439,-3.4361,-3.4233,-3.4461,-3.4552,-3.4588,-3.4101,-3.4097,-3.4093,-3.4091,0,0,-3.3925,-3.3962,-3.4003,-3.4033,-3.4074,-3.4153,-3.4277,-3.4358,-3.4414,-3.4463,-3.4568,-3.4696,-3.4623,-3.4666,-3.463,-3.4723,-3.4946,-3.4632,-3.4633,-3.4692,-3.5192,-3.5253,-3.5297,-3.4901,-3.4908,-3.4914,-3.5189,0,-3.4196,-3.4411,-3.4369,-3.458,-3.4676,-3.4583,-3.4691,-3.4728,-3.4724,-3.4805,-3.4799,-3.4893,-3.4788,-3.4814,-3.4901,-3.4901,-3.5046,-3.488,-3.4999,-3.5004,-3.4995,-3.5344,-3.5409,-3.5668,-3.5224,-3.523,-3.5234,0,-3.4541,-3.4604,-3.4824,-3.4849,-3.4888,-3.4986,-3.5056,-3.5134,-3.5173,-3.5164,-3.5211,-3.5157,-3.5281,-3.5149,-3.532,-3.5207,-3.5253,-3.526,-3.5269,-3.5281,-3.5136,-3.5368,-3.575,-3.579,-3.5289,-3.5284,-3.528,0,-3.4798,-3.4937,-3.5086,-3.5114,-3.5147,-3.5218,-3.5235,-3.5267,-3.5318,-3.5379,-3.5411,-3.5486,-3.5528,-3.5587,-3.5554,-3.5461,-3.5731,-3.5596,-3.5728,-3.573,-3.5792,-3.579,-3.6189,-3.5817,-3.5817,-3.5816,-3.5815,0,-3.5107,-3.5246,-3.5202,-3.5295,-3.5447,-3.5397,-3.555,-3.5555,-3.5584,-3.5677,-3.5599,-3.5688,-3.5638,-3.5722,-3.5697,-3.5843,-3.5862,-3.5859,-3.5851,-3.5868,-3.5869,-3.5899,-3.5882,-3.5826,-3.5824,-3.5822,-3.582,0,-3.5421,-3.5397,-3.5555,-3.5572,-3.5579,-3.5691,-3.5706,-3.5792,-3.5781,-3.5898,-3.5923,-3.5907,-3.6002,-3.5974,-3.6077,-3.606,-3.6246,-3.6213,-3.6233,-3.6226,-3.636,-3.6349,-3.6797,-3.6854,-3.6442,-3.6446,-3.645,0,-3.5622,-3.5726,-3.5754,-3.581,-3.5833,-3.5924,-3.5975,-3.5929,-3.5985,-3.6037,-3.6118,-3.6205,-3.6274,-3.643,-3.6428,-3.6506,-3.6477,-3.6628,-3.6488,-3.6502,-3.6482,-3.6477,-3.6488,-3.6657,-3.6662,-3.6665,-3.6669,0,-3.5981,-3.5963,-3.604,-3.6113,-3.6176,-3.6231,-3.6279,-3.6329,-3.6286,-3.6354,-3.6449,-3.6502,-3.6607,-3.6696,-3.6767,-3.6783,-3.6721,-3.6712,-3.6747,-3.6767,-3.6775,-3.6775,-3.6312,-3.6703,-3.6699,-3.6697,-3.6695,-3.6694,-3.6246,-3.6335,-3.6368,-3.6456,-3.6487,-3.6533,-3.6616,-3.6614,-3.6693,-3.6775,-3.6742,-3.6853,-3.6888,-3.6977,-3.7003,-3.7089,-3.7031,-3.7082,-3.7095,-3.7109,-3.7127,-3.6758,-3.7101,-3.71,-3.7099,-3.7098,-3.7098,0,-3.6603,-3.6619,-3.67,-3.677,-3.6839,-3.6771,-3.682,-3.6883,-3.6981,-3.7019,-3.7088,-3.7198,-3.7283,-3.7286,-3.7366,-3.7434,-3.7407,-3.7457,-3.7453,-3.7459,-3.7173,-3.7136,-3.7478,-3.7478,-3.7478,-3.7478,-3.7477,-3.7477,-3.6797,-3.6944,-3.6931,-3.7092,-3.7107,-3.7215,-3.7249,-3.7292,-3.7322,-3.7448,-3.7519,-3.7519,-3.7544,-3.7624,-3.7699,-3.7698,-3.7732,-3.7794,-3.7782,-3.7516,-3.7479,-3.7443,-3.7408,-3.7801,-3.7801,-3.806,-3.8063,-3.8065]},{"header":{"parameterUnit":"m.s-1","parameterCategory":1,"la1":30.2991,"la2":30.254,"lo1":-89.0895,"lo2":-89.0444,"dy":0.0017,"dx":0.0017,"nx":28,"ny":28,"refTime":"2023-10-07T09:00:00:Z","depth":0,"parameterNumber":3,"parameterNumberName":"V-component_of_WINDS"},"data":[0,0,0,0,0,0,0,0,0,0,0,0,0,0,0,0,0,0,0,0,0,0,0,0,0,0,0,0,0,0,0,0,0,0,0,0,0,0,0,0,0,0,0,0,0,0,0,0,0,0,0,0,0,0,0,0,0,0,-5.6527,-5.6528,0,-5.6586,-5.6586,-5.6587,-5.6489,-5.6486,-5.6483,-5.648,-5.6535,-5.6539,-5.6544,0,0,0,0,0,0,0,0,0,0,0,0,0,-5.6324,-5.6328,-5.6527,-5.6528,-5.6529,-5.6586,-5.6587,-5.6587,-5.649,-5.6486,-5.6482,-5.6478,-5.6533,-5.6539,-5.6544,0,0,0,0,0,0,0,0,0,0,0,0,0,-5.6401,-5.633,-5.6527,-5.6487,-5.6484,-5.6586,-5.6587,-5.6588,-5.6491,-5.6486,-5.6481,-5.6476,-5.6532,-5.6538,-5.6545,-5.6687,0,0,-5.6566,-5.6569,0,0,0,0,0,0,0,0,-5.6396,-5.6408,-5.6492,-5.649,-5.6487,-5.6525,-5.6535,-5.6621,-5.6492,-5.6488,-5.6479,-5.6474,-5.6535,-5.6542,-5.6563,-5.6689,-5.6692,-5.6567,-5.6571,-5.6574,-5.6576,0,0,0,0,0,0,0,-5.6391,-5.6405,-5.655,-5.6493,-5.649,-5.6464,-5.6469,-5.6551,-5.6539,-5.6488,-5.6481,-5.649,-5.6533,-5.6557,-5.6564,-5.6693,-5.6566,-5.6572,-5.6577,-5.6579,-5.6935,-5.694,0,0,0,0,0,0,-5.6392,-5.6401,-5.6548,-5.6552,-5.6429,-5.6472,-5.6478,-5.6518,-5.6538,-5.6536,-5.6494,-5.6485,-5.6548,-5.6556,-5.6566,-5.6731,-5.6574,-5.658,-5.6584,-5.693,-5.6936,-5.6942,0,0,0,0,0,0,-5.6388,-5.6406,-5.6546,-5.6475,-5.6491,-5.6481,-5.6526,-5.6522,-5.6546,-5.6542,-5.6539,-5.6521,-5.6544,-5.6556,-5.6657,-5.6732,-5.6583,-5.6589,-5.6924,-5.6932,-5.6939,-5.7065,0,0,0,0,0,0,-5.6382,-5.6405,-5.646,-5.6477,-5.6495,-5.6639,-5.6531,-5.6526,-5.6558,-5.6547,-5.6567,-5.6565,-5.6541,-5.6648,-5.6664,-5.6739,-5.6595,-5.6917,-5.6927,-5.6937,-5.7054,-5.7076,-5.7095,0,0,0,0,0,-5.6375,-5.6493,-5.6464,-5.6482,-5.6564,-5.6643,-5.6653,-5.6625,-5.6565,-5.6619,-5.6616,-5.6565,-5.6721,-5.6659,-5.6676,-5.6754,-5.6912,-5.6924,-5.6936,-5.7045,-5.7072,-5.7095,0,0,0,0,0,0,-5.6483,-5.6494,-5.6462,-5.6589,-5.6616,-5.6627,-5.6694,-5.6655,-5.6698,-5.6686,-5.6647,-5.6652,-5.6761,-5.6767,-5.6698,-5.6891,-5.6806,-5.6822,-5.6883,-5.6909,-5.6929,-5.6924,-5.66,0,0,0,0,0,-5.6523,-5.6588,-5.6593,-5.6704,-5.6719,-5.6705,-5.6738,-5.6714,-5.674,-5.6751,-5.6755,-5.6781,-5.6836,-5.6873,-5.6923,-5.7055,-5.7056,-5.7117,-5.7137,-5.7154,-5.7168,-5.7236,-5.7263,-5.6982,-5.6982,-5.6981,0,0,-5.6603,-5.6617,-5.666,-5.6726,-5.6744,-5.6811,-5.6715,-5.679,-5.6838,-5.6761,-5.6857,-5.6862,-5.6888,-5.7005,-5.7056,-5.7014,-5.7246,-5.717,-5.7183,-5.7188,-5.7252,-5.7278,-5.7302,-5.699,-5.6988,-5.6987,0,0,-5.6783,-5.6801,-5.6895,-5.6915,-5.6945,-5.6934,-5.6957,-5.6974,-5.6974,-5.707,-5.7014,-5.7069,-5.7165,-5.7185,-5.7208,-5.7395,-5.7348,-5.7413,-5.752,-5.7587,-5.7609,-5.7628,-5.7693,-5.7717,-5.7427,-5.7427,-5.7428,0,-5.6879,-5.6978,-5.6948,-5.7026,-5.7056,-5.6991,-5.7084,-5.7105,-5.7149,-5.7169,-5.7121,-5.7239,-5.7252,-5.7372,-5.7418,-5.7439,-5.7462,-5.741,-5.7609,-5.7628,-5.7645,-5.7707,-5.7731,-5.7435,-5.7434,-5.7433,-5.7432,0,-5.7093,-5.7163,-5.7235,-5.7281,-5.7318,-5.7404,-5.7384,-5.7425,-5.7397,-5.7391,-5.7489,-5.7502,-5.7553,-5.758,-5.7553,-5.7695,-5.7668,-5.7615,-5.7529,-5.768,-5.7737,-5.776,-5.7446,-5.7443,-5.7441,-5.7439,0,0,-5.7343,-5.737,-5.7397,-5.7416,-5.7443,-5.7496,-5.7577,-5.7629,-5.7664,-5.7696,-5.7762,-5.7844,-5.7795,-5.7821,-5.7796,-5.7855,-5.8,-5.7794,-5.7794,-5.7831,-5.8155,-5.8194,-5.8222,-5.797,-5.7974,-5.7977,-5.8152,0,-5.7521,-5.7664,-5.7638,-5.7776,-5.7838,-5.7777,-5.7848,-5.7871,-5.7867,-5.7918,-5.7913,-5.7972,-5.7904,-5.7919,-5.7974,-5.7971,-5.8064,-5.7958,-5.8028,-5.8031,-5.8022,-5.8252,-5.8293,-5.8458,-5.8175,-5.8178,-5.8181,0,-5.7748,-5.779,-5.7934,-5.795,-5.7976,-5.804,-5.8084,-5.8135,-5.8159,-5.8151,-5.8181,-5.8144,-5.8223,-5.8137,-5.8243,-5.8171,-5.8198,-5.8201,-5.8206,-5.8211,-5.8114,-5.8261,-5.851,-5.8534,-5.8216,-5.8213,-5.8211,0,-5.7913,-5.8006,-5.8104,-5.8122,-5.8144,-5.819,-5.8201,-5.822,-5.8252,-5.829,-5.831,-5.8357,-5.8382,-5.8418,-5.8393,-5.8333,-5.8503,-5.8415,-5.8498,-5.8499,-5.8535,-5.8533,-5.8791,-5.8556,-5.8556,-5.8555,-5.8555,0,-5.8114,-5.8204,-5.8178,-5.8238,-5.8337,-5.8305,-5.8403,-5.8406,-5.8424,-5.8482,-5.8432,-5.8487,-5.8452,-5.8504,-5.8486,-5.8576,-5.8588,-5.8583,-5.8576,-5.8586,-5.8587,-5.8603,-5.859,-5.8562,-5.856,-5.8559,-5.8558,0,-5.8315,-5.8301,-5.8404,-5.8416,-5.8421,-5.8493,-5.8503,-5.8558,-5.855,-5.8624,-5.8639,-5.8627,-5.8685,-5.8665,-5.8727,-5.8715,-5.8829,-5.8808,-5.8821,-5.8815,-5.8898,-5.889,-5.9174,-5.9209,-5.8953,-5.8955,-5.8958,0,-5.8443,-5.8511,-5.8531,-5.8567,-5.8582,-5.8641,-5.8673,-5.8644,-5.868,-5.8712,-5.8763,-5.8817,-5.8858,-5.8954,-5.8949,-5.8996,-5.8975,-5.9071,-5.8982,-5.8989,-5.8975,-5.897,-5.8976,-5.9089,-5.9092,-5.9094,-5.9096,0,-5.8671,-5.8661,-5.8711,-5.8759,-5.88,-5.8835,-5.8866,-5.8898,-5.887,-5.8913,-5.8972,-5.9005,-5.9068,-5.9122,-5.9164,-5.9172,-5.913,-5.9125,-5.9146,-5.9156,-5.916,-5.9157,-5.8868,-5.9118,-5.9116,-5.9114,-5.9113,-5.9112,-5.8838,-5.8896,-5.8918,-5.8975,-5.8996,-5.9026,-5.9077,-5.9077,-5.9127,-5.9177,-5.9156,-5.9225,-5.9245,-5.9297,-5.9312,-5.9363,-5.9326,-5.9357,-5.9364,-5.9372,-5.9382,-5.9153,-5.9371,-5.937,-5.937,-5.9369,-5.9369,0,-5.9062,-5.9074,-5.9127,-5.9172,-5.9217,-5.9174,-5.9206,-5.9245,-5.9306,-5.933,-5.9372,-5.944,-5.9491,-5.9491,-5.9538,-5.9579,-5.956,-5.9592,-5.9588,-5.959,-5.9414,-5.939,-5.9607,-5.9606,-5.9606,-5.9606,-5.9606,-5.9606,-5.9184,-5.9278,-5.9271,-5.9373,-5.9383,-5.9451,-5.9473,-5.9499,-5.9518,-5.9596,-5.9639,-5.9639,-5.9652,-5.97,-5.9745,-5.9743,-5.9762,-5.9801,-5.9792,-5.9627,-5.9603,-5.958,-5.9558,-5.9806,-5.9806,-5.9964,-5.9965,-5.9966]}]]